[[{"header":{"parameterUnit":"m.s-1","parameterCategory":1,"la1":30.2991,"la2":30.254,"lo1":-89.0895,"lo2":-89.0444,"dy":0.0017,"dx":0.0017,"nx":28,"ny":28,"refTime":"2025-01-11T09:00:00:Z","depth":0,"parameterNumber":2,"parameterNumberName":"U-component_of_WINDS"},"data":[0,0,0,0,0,0,0,0,0,0,0,0,0,0,0,0,0,0,0,0,0,0,0,0,0,0,0,0,0,0,0,0,0,0,0,0,0,0,0,0,0,0,0,0,0,0,0,0,0,0,0,0,0,0,0,0,0,0,1.1098,1.1098,0,1.1125,1.1125,1.1125,1.1132,1.1132,1.1131,1.1131,1.1158,1.1159,1.1159,0,0,0,0,0,0,0,0,0,0,0,0,0,1.1053,1.1054,1.1098,1.1098,1.1099,1.1125,1.1125,1.1125,1.1132,1.1132,1.1131,1.1131,1.1157,1.1159,1.116,0,0,0,0,0,0,0,0,0,0,0,0,0,1.1075,1.1054,1.1098,1.1105,1.1106,1.1125,1.1125,1.1126,1.1132,1.1132,1.1131,1.1131,1.1157,1.1158,1.116,1.1173,0,0,1.1164,1.1164,0,0,0,0,0,0,0,0,1.1074,1.1077,1.1104,1.1105,1.1106,1.1125,1.1119,1.1141,1.1132,1.1122,1.1131,1.1131,1.1147,1.1149,1.1155,1.1174,1.1175,1.1164,1.1165,1.1165,1.1166,0,0,0,0,0,0,0,1.1072,1.1076,1.1109,1.1104,1.1105,1.1107,1.111,1.1123,1.1136,1.1123,1.1123,1.1126,1.1147,1.1153,1.1155,1.1176,1.1164,1.1165,1.1166,1.1166,1.1209,1.1209,0,0,0,0,0,0,1.107,1.1074,1.1108,1.1109,1.1089,1.1108,1.1111,1.1119,1.1135,1.1138,1.1127,1.1127,1.1151,1.1154,1.1156,1.1173,1.1165,1.1166,1.1167,1.1208,1.1209,1.1209,0,0,0,0,0,0,1.1069,1.1073,1.1107,1.1092,1.1097,1.1109,1.1118,1.112,1.1125,1.1138,1.1141,1.113,1.1151,1.1154,1.1169,1.1174,1.1167,1.1168,1.1208,1.1208,1.1209,1.1207,0,0,0,0,0,0,1.1067,1.1072,1.1077,1.1092,1.1097,1.1119,1.1118,1.112,1.1128,1.1128,1.1143,1.1145,1.1151,1.1167,1.117,1.1176,1.1169,1.1207,1.1208,1.1209,1.1207,1.1208,1.1208,0,0,0,0,0,1.1066,1.1076,1.1077,1.1081,1.1104,1.1119,1.1122,1.113,1.1128,1.1133,1.1142,1.1144,1.1173,1.1169,1.1172,1.1178,1.1207,1.1208,1.1209,1.1207,1.1208,1.1208,0,0,0,0,0,0,1.106,1.1078,1.108,1.1095,1.1106,1.112,1.1127,1.113,1.1142,1.1141,1.115,1.1153,1.1168,1.1174,1.1169,1.1193,1.119,1.1192,1.1187,1.1188,1.1189,1.1187,1.117,0,0,0,0,0,1.1061,1.1072,1.1087,1.1098,1.1104,1.1115,1.1122,1.1127,1.1138,1.1142,1.1152,1.1163,1.1174,1.1182,1.1193,1.1208,1.1212,1.1214,1.1215,1.1216,1.1217,1.1226,1.1227,1.1212,1.1212,1.1211,0,0,1.1062,1.1073,1.108,1.1098,1.1107,1.1118,1.1118,1.113,1.1139,1.1144,1.1159,1.1166,1.1179,1.1194,1.1201,1.12,1.1222,1.1217,1.1217,1.1218,1.1226,1.1228,1.1229,1.1212,1.1212,1.1212,0,0,1.1071,1.108,1.1091,1.11,1.1114,1.1121,1.1124,1.1138,1.1144,1.1159,1.1163,1.1173,1.1193,1.1202,1.1209,1.1222,1.1225,1.1225,1.1229,1.1238,1.1239,1.124,1.1245,1.1246,1.1227,1.1227,1.1227,0,1.107,1.1088,1.1096,1.1108,1.1116,1.1122,1.1134,1.1142,1.1159,1.1164,1.1163,1.1188,1.1197,1.1215,1.1218,1.1224,1.1227,1.1224,1.1238,1.1239,1.124,1.1245,1.1247,1.1227,1.1227,1.1227,1.1227,0,1.1087,1.1099,1.1107,1.1123,1.1132,1.1143,1.1154,1.1162,1.1166,1.1173,1.1189,1.12,1.1214,1.1219,1.1223,1.1237,1.1236,1.1236,1.1234,1.1242,1.1246,1.1248,1.1227,1.1227,1.1227,1.1227,0,0,1.1092,1.1114,1.1116,1.1124,1.114,1.1149,1.1162,1.1176,1.1182,1.1194,1.1204,1.1221,1.1222,1.123,1.1236,1.1243,1.1253,1.1243,1.1243,1.1244,1.1269,1.1269,1.1271,1.1255,1.1255,1.1256,1.1268,0,1.1102,1.1124,1.1132,1.115,1.1162,1.1168,1.1179,1.119,1.1197,1.1208,1.1216,1.1228,1.1228,1.1233,1.1241,1.125,1.1258,1.1249,1.1265,1.1265,1.1261,1.1273,1.1272,1.1284,1.127,1.127,1.1271,0,1.1117,1.1129,1.1148,1.1163,1.1169,1.1178,1.1192,1.1202,1.1215,1.122,1.1229,1.1235,1.1248,1.1245,1.1263,1.1257,1.1264,1.1269,1.127,1.1271,1.1268,1.1275,1.1287,1.1289,1.1273,1.1273,1.1273,0,1.1119,1.114,1.1154,1.1161,1.1179,1.1185,1.1193,1.1206,1.1214,1.1226,1.1232,1.1245,1.1252,1.1263,1.1271,1.1269,1.1289,1.1287,1.1293,1.1293,1.1297,1.1296,1.1311,1.1302,1.1302,1.1301,1.1301,0,1.1129,1.1141,1.1155,1.1164,1.1177,1.1187,1.12,1.1208,1.1219,1.123,1.1236,1.1246,1.1257,1.1268,1.1275,1.1289,1.1293,1.1297,1.1299,1.1296,1.1296,1.1301,1.13,1.1302,1.1302,1.1302,1.1302,0,1.1133,1.1144,1.116,1.1176,1.118,1.1189,1.1203,1.1212,1.122,1.1233,1.1237,1.125,1.1263,1.1273,1.1291,1.1295,1.131,1.1312,1.1306,1.1307,1.1313,1.1312,1.1331,1.1334,1.1323,1.1323,1.1323,0,1.1139,1.1148,1.1165,1.1173,1.1181,1.1193,1.1202,1.1212,1.1221,1.1236,1.1243,1.1258,1.1269,1.1291,1.1302,1.1315,1.1317,1.1323,1.1319,1.1317,1.1317,1.1317,1.1318,1.1323,1.1323,1.1323,1.1323,0,1.1148,1.1153,1.1165,1.118,1.119,1.1201,1.1213,1.1219,1.1231,1.1241,1.1255,1.1264,1.1283,1.1297,1.1311,1.1319,1.1323,1.1324,1.1327,1.1324,1.132,1.1323,1.1307,1.1324,1.1324,1.1324,1.1324,1.1324,1.1154,1.1162,1.1176,1.1189,1.1199,1.121,1.122,1.1229,1.1241,1.1257,1.1262,1.1277,1.129,1.1311,1.1319,1.1331,1.1331,1.1334,1.1335,1.1335,1.1335,1.1319,1.1334,1.1334,1.1334,1.1334,1.1334,0,1.1163,1.1173,1.1185,1.1201,1.1212,1.1216,1.1229,1.1238,1.1251,1.1263,1.1275,1.1291,1.1305,1.1317,1.1332,1.1339,1.1341,1.1342,1.1342,1.1343,1.1334,1.1331,1.134,1.134,1.134,1.134,1.134,1.134,1.117,1.1184,1.1191,1.1211,1.122,1.1235,1.1242,1.1253,1.1262,1.1281,1.1292,1.13,1.1313,1.1328,1.1341,1.1344,1.1349,1.135,1.1354,1.1345,1.1344,1.1343,1.134,1.1351,1.1351,1.1362,1.1362,1.1362]},{"header":{"parameterUnit":"m.s-1","parameterCategory":1,"la1":30.2991,"la2":30.254,"lo1":-89.0895,"lo2":-89.0444,"dy":0.0017,"dx":0.0017,"nx":28,"ny":28,"refTime":"2025-01-11T09:00:00:Z","depth":0,"parameterNumber":3,"parameterNumberName":"V-component_of_WINDS"},"data":[0,0,0,0,0,0,0,0,0,0,0,0,0,0,0,0,0,0,0,0,0,0,0,0,0,0,0,0,0,0,0,0,0,0,0,0,0,0,0,0,0,0,0,0,0,0,0,0,0,0,0,0,0,0,0,0,0,0,-2.2922,-2.2922,0,-2.2994,-2.2995,-2.2995,-2.303,-2.303,-2.303,-2.303,-2.31,-2.3102,-2.3104,0,0,0,0,0,0,0,0,0,0,0,0,0,-2.2811,-2.2813,-2.2922,-2.2923,-2.2923,-2.2994,-2.2995,-2.2996,-2.303,-2.303,-2.303,-2.303,-2.3099,-2.3102,-2.3104,0,0,0,0,0,0,0,0,0,0,0,0,0,-2.2869,-2.2814,-2.2921,-2.2949,-2.2952,-2.2993,-2.2995,-2.2996,-2.303,-2.303,-2.303,-2.303,-2.3099,-2.3101,-2.3104,-2.3122,0,0,-2.3113,-2.3114,0,0,0,0,0,0,0,0,-2.2865,-2.2873,-2.2944,-2.2947,-2.2951,-2.3003,-2.2981,-2.3038,-2.303,-2.3001,-2.303,-2.303,-2.3067,-2.3073,-2.3086,-2.3125,-2.3128,-2.3113,-2.3115,-2.3116,-2.3117,0,0,0,0,0,0,0,-2.2861,-2.287,-2.295,-2.2945,-2.2949,-2.2957,-2.2965,-2.2992,-2.3033,-2.3003,-2.3006,-2.3014,-2.3069,-2.3083,-2.3088,-2.3129,-2.3113,-2.3115,-2.3117,-2.3118,-2.3188,-2.3188,0,0,0,0,0,0,-2.2853,-2.2866,-2.2948,-2.2952,-2.2907,-2.2959,-2.2968,-2.2986,-2.3033,-2.304,-2.3014,-2.3015,-2.3079,-2.3085,-2.3091,-2.3116,-2.3116,-2.3118,-2.312,-2.3188,-2.3188,-2.3188,0,0,0,0,0,0,-2.2851,-2.286,-2.2945,-2.291,-2.2922,-2.2961,-2.2981,-2.2988,-2.3002,-2.3041,-2.3048,-2.3021,-2.3079,-2.3087,-2.3115,-2.3119,-2.312,-2.3122,-2.3188,-2.3188,-2.3188,-2.3166,0,0,0,0,0,0,-2.2848,-2.2859,-2.2867,-2.291,-2.2923,-2.2968,-2.2981,-2.2989,-2.3007,-2.301,-2.305,-2.3056,-2.308,-2.311,-2.3117,-2.3123,-2.3124,-2.3187,-2.3188,-2.3188,-2.3166,-2.3165,-2.3164,0,0,0,0,0,-2.2844,-2.2856,-2.2867,-2.2877,-2.2934,-2.2968,-2.2976,-2.3003,-2.3007,-2.3015,-2.3041,-2.3055,-2.3117,-2.3113,-2.3121,-2.3127,-2.3187,-2.3188,-2.3188,-2.3167,-2.3165,-2.3164,0,0,0,0,0,0,-2.281,-2.2862,-2.2875,-2.2902,-2.2931,-2.2974,-2.2985,-2.3001,-2.3027,-2.3029,-2.306,-2.3069,-2.3094,-2.3113,-2.3108,-2.3148,-2.3154,-2.3156,-2.3135,-2.3134,-2.3133,-2.3128,-2.3127,0,0,0,0,0,-2.2807,-2.2831,-2.2875,-2.2895,-2.2909,-2.2944,-2.296,-2.2979,-2.301,-2.3021,-2.3049,-2.3077,-2.3103,-2.3119,-2.3145,-2.3169,-2.3179,-2.3178,-2.3177,-2.3176,-2.3177,-2.3193,-2.3193,-2.3189,-2.3189,-2.3189,0,0,-2.2798,-2.283,-2.2843,-2.2889,-2.2914,-2.2938,-2.2954,-2.2979,-2.2997,-2.3025,-2.3054,-2.3075,-2.3108,-2.3134,-2.3147,-2.3151,-2.318,-2.3176,-2.3175,-2.3177,-2.3193,-2.3194,-2.3194,-2.319,-2.319,-2.319,0,0,-2.2796,-2.2822,-2.2843,-2.2868,-2.2905,-2.2929,-2.2934,-2.2975,-2.2991,-2.3021,-2.3043,-2.3064,-2.3108,-2.3132,-2.3149,-2.3158,-2.3173,-2.3166,-2.3161,-2.3176,-2.3176,-2.3176,-2.3181,-2.3182,-2.3167,-2.3167,-2.3167,0,-2.2781,-2.282,-2.2851,-2.2875,-2.2895,-2.2923,-2.2944,-2.2966,-2.301,-2.3022,-2.3026,-2.3084,-2.3108,-2.3141,-2.3144,-2.3156,-2.3163,-2.3161,-2.3174,-2.3174,-2.3175,-2.318,-2.3181,-2.3166,-2.3166,-2.3166,-2.3166,0,-2.28,-2.2827,-2.2838,-2.2882,-2.2903,-2.2926,-2.2959,-2.2977,-2.2995,-2.3018,-2.3048,-2.3079,-2.3112,-2.3121,-2.3137,-2.3157,-2.3159,-2.3168,-2.3174,-2.3174,-2.3179,-2.3181,-2.3164,-2.3165,-2.3165,-2.3165,0,0,-2.2778,-2.284,-2.2844,-2.2865,-2.291,-2.2931,-2.2954,-2.2989,-2.3004,-2.3033,-2.3054,-2.3092,-2.3101,-2.3121,-2.314,-2.3153,-2.3161,-2.3161,-2.3162,-2.3161,-2.3186,-2.3179,-2.3181,-2.317,-2.3171,-2.3171,-2.3183,0,-2.2783,-2.2829,-2.2858,-2.2892,-2.2918,-2.2945,-2.2967,-2.2996,-2.3018,-2.3043,-2.3067,-2.3094,-2.3104,-2.3116,-2.3131,-2.3157,-2.3166,-2.3156,-2.319,-2.3191,-2.3182,-2.3183,-2.3176,-2.3186,-2.3185,-2.3185,-2.3186,0,-2.2794,-2.2825,-2.2862,-2.2906,-2.2918,-2.2937,-2.2972,-2.2995,-2.3029,-2.3045,-2.3068,-2.3088,-2.3115,-2.3119,-2.3156,-2.3148,-2.3164,-2.3179,-2.318,-2.3185,-2.3189,-2.3189,-2.319,-2.3191,-2.3189,-2.3189,-2.3188,0,-2.2776,-2.2827,-2.2857,-2.2873,-2.2925,-2.2937,-2.2959,-2.2993,-2.3013,-2.3043,-2.3056,-2.3088,-2.3106,-2.313,-2.3158,-2.3159,-2.3193,-2.3199,-2.3207,-2.3206,-2.3213,-2.3212,-2.3217,-2.3221,-2.3221,-2.3221,-2.3221,0,-2.2779,-2.2801,-2.2849,-2.2867,-2.2893,-2.2926,-2.2951,-2.2974,-2.3005,-2.3028,-2.3053,-2.3074,-2.311,-2.3135,-2.3157,-2.3185,-2.3192,-2.3205,-2.3211,-2.3204,-2.3202,-2.3215,-2.3215,-2.3222,-2.3222,-2.3221,-2.3221,0,-2.2763,-2.2796,-2.283,-2.2877,-2.289,-2.2906,-2.2946,-2.2965,-2.2989,-2.3018,-2.3027,-2.3065,-2.3096,-2.3127,-2.3168,-2.3183,-2.3211,-2.3218,-2.32,-2.3204,-2.321,-2.3209,-2.3224,-2.3228,-2.3228,-2.3228,-2.3228,0,-2.2763,-2.2781,-2.283,-2.2849,-2.287,-2.2899,-2.292,-2.2953,-2.2974,-2.3015,-2.3029,-2.3062,-2.3091,-2.3139,-2.317,-2.3202,-2.3211,-2.3214,-2.3216,-2.3208,-2.3212,-2.3211,-2.3214,-2.3213,-2.3213,-2.3212,-2.3212,0,-2.2759,-2.2776,-2.2806,-2.2842,-2.2867,-2.2897,-2.2927,-2.294,-2.298,-2.3001,-2.3035,-2.3057,-2.3101,-2.3134,-2.317,-2.3191,-2.3208,-2.3212,-2.3215,-2.3208,-2.3198,-2.3205,-2.3199,-2.3211,-2.3211,-2.3211,-2.3211,-2.3211,-2.2752,-2.277,-2.2809,-2.2842,-2.2869,-2.2897,-2.2918,-2.2946,-2.2975,-2.3015,-2.3032,-2.3066,-2.3101,-2.3151,-2.3173,-2.3199,-2.3204,-2.3208,-2.321,-2.3211,-2.321,-2.3193,-2.3206,-2.3206,-2.3206,-2.3206,-2.3206,0,-2.2751,-2.2778,-2.2808,-2.2852,-2.2878,-2.2894,-2.2929,-2.2949,-2.2979,-2.3011,-2.304,-2.3078,-2.3111,-2.3146,-2.318,-2.3195,-2.3204,-2.3203,-2.3202,-2.3207,-2.3203,-2.3197,-2.3195,-2.3195,-2.3195,-2.3195,-2.3195,-2.3195,-2.2754,-2.2786,-2.2807,-2.2853,-2.288,-2.2914,-2.2933,-2.296,-2.2986,-2.3029,-2.3057,-2.308,-2.3113,-2.315,-2.3181,-2.319,-2.3202,-2.3199,-2.3211,-2.3207,-2.3207,-2.3208,-2.3203,-2.3201,-2.3201,-2.3213,-2.3213,-2.3213]}]]